Weather in Novorossiysk

Russia / Krasnodar Krai     44°43′26″N   37°46′08″E
temp.,
°C
wind,
m/s
gust,
m/s
humid.,
%
clouds,
%
prec.,
mm/h
press.,
hPa
HPBL,
m
27 october, wed
wed2700:00+4ne33760 0.0 102992
03:00+3nne22770 0.0 102868
06:00+3nne22790 0.0 102746
09:00+6nne12650 0.0 102695
12:00+12nw11450 0.0 1026520
15:00+13wnw11410 0.0 1024769
18:00+9n22620 0.0 102483
21:00+7n22660 0.0 102456
28 october, thu
thu2800:00+6nnw12670 0.0 102453
03:00+6n11670 0.0 102437
06:00+5n11660 0.0 102437
09:00+8n11590 0.0 1025125
12:00+12w12450 0.0 1025956
15:00+12nw12444 0.0 10231135
18:00+9n23605 0.0 1024208
21:00+7nne1261100 0.0 102576
29 october, fri
fri2900:00+6nne2260100 0.0 102455
03:00+6nne22600 0.0 102553
06:00+5nne22605 0.0 102552
09:00+8nne23535 0.0 1025131
12:00+12nne35456 0.0 1025668
15:00+12ne47476 0.0 1024698
18:00+9ne39606 0.0 1025366
21:00+8ne37635 0.0 1026298
30 october, sat
sat3000:00+7ne310685 0.0 1026384
03:00+6ne311690 0.0 1026331
06:00+5ne411730 0.0 1027317
09:00+8ne411613 0.0 1027337
12:00+12ene48483 0.0 1027536
15:00+13ene610486 0.0 1026861
18:00+11ene614465 0.0 1026623
21:00+10ne512492 0.0 1025382
31 october, sun
sun3100:00+8nne35590 0.0 1025111
03:00+6nne45660 0.0 102498
06:00+6nne45710 0.0 102491
09:00+8nne46700 0.0 1023173
12:00+13nne465247 0.0 1022294
15:00+14ne3649100 0.0 1020377
18:00+12ne266599 0.0 1020165
21:00+10nne228095 0.0 102055